When you browse on this site, cookies collect data to enhance your experience and personalize the content and advertising you see.
Visit our Privacy Policy to learn more. By continuing to use the site, you agree to this use of cookies and data.
  • In Sweden
  • List of Countries
  • For 7 days
  • Water Temperature
  • Weather Map
  • Weather Widgets
  • user-avatar
    Login

    Hourly Weather South Jordan

    Today, 8 December, Sunday

    Time Temperature Precipitation Wind Pressure Humidity
    00:00 +4°C° 0.3 mm 3 mps 642 mmHg 91%
    01:00 +4°C° 0.3 mm 3 mps 641 mmHg 92%
    02:00 +5°C° 0.3 mm 2 mps 641 mmHg 94%
    03:00 +5°C° 0.7 mm 2 mps 641 mmHg 93%
    04:00 +5°C° 0.7 mm 2 mps 641 mmHg 93%
    05:00 +5°C° 0.7 mm 2 mps 641 mmHg 93%
    06:00 +4°C° 0.7 mm 2 mps 640 mmHg 95%
    07:00 +4°C° 0.7 mm 2 mps 640 mmHg 96%
    08:00 +4°C° 0.7 mm 2 mps 640 mmHg 98%
    09:00 +5°C° 0.3 mm 1 mps 640 mmHg 95%
    10:00 +6°C° 0.3 mm 1 mps 641 mmHg 91%
    11:00 +6°C° 0.3 mm 1 mps 641 mmHg 88%
    12:00 +6°C° 0.1 mm 1 mps 641 mmHg 86%
    13:00 +6°C° 0.1 mm 1 mps 641 mmHg 84%
    14:00 +6°C° 0.1 mm 1 mps 640 mmHg 82%
    15:00 +5°C° 0 mm 1 mps 640 mmHg 84%
    16:00 +5°C° 0 mm 1 mps 641 mmHg 87%
    17:00 +4°C° 0 mm 1 mps 641 mmHg 90%
    18:00 +4°C° 0.2 mm 1 mps 641 mmHg 91%
    19:00 +4°C° 0.2 mm 1 mps 641 mmHg 93%
    20:00 +3°C° 0.2 mm 1 mps 641 mmHg 94%
    21:00 +3°C° 0.4 mm 1 mps 641 mmHg 95%
    22:00 +4°C° 0.4 mm 1 mps 642 mmHg 96%
    23:00 +3°C° 0.4 mm 2 mps 642 mmHg 97%

    Tomorrow, 9 December, Monday

    Time Temperature Precipitation Wind Pressure Humidity
    00:00 +2°C° 0.3 mm 2 mps 642 mmHg 96%
    01:00 +2°C° 0.3 mm 2 mps 642 mmHg 96%
    02:00 +2°C° 0.3 mm 2 mps 642 mmHg 95%
    03:00 +2°C° 0.3 mm 2 mps 643 mmHg 95%
    04:00 +2°C° 0.3 mm 1 mps 643 mmHg 95%
    05:00 +2°C° 0.3 mm 1 mps 643 mmHg 95%
    06:00 +2°C° 0.1 mm 1 mps 644 mmHg 94%
    07:00 +2°C° 0.1 mm 1 mps 644 mmHg 94%
    08:00 +1°C° 0.1 mm 1 mps 644 mmHg 93%
    09:00 +2°C° 0.1 mm 1 mps 645 mmHg 90%
    10:00 +3°C° 0.1 mm 1 mps 645 mmHg 86%
    11:00 +3°C° 0.1 mm 1 mps 645 mmHg 83%
    12:00 +4°C° 0 mm 1 mps 645 mmHg 80%
    13:00 +4°C° 0 mm 1 mps 645 mmHg 77%
    14:00 +4°C° 0 mm 1 mps 645 mmHg 74%
    15:00 +3°C° 0 mm 1 mps 645 mmHg 77%
    16:00 +2°C° 0 mm 1 mps 645 mmHg 80%
    17:00 +2°C° 0 mm 1 mps 645 mmHg 84%
    18:00 +1°C° 0 mm 1 mps 645 mmHg 84%
    19:00 0°C° 0 mm 1 mps 645 mmHg 84%
    20:00 -1°C° 0 mm 0 mps 646 mmHg 84%
    21:00 -1°C° 0 mm 0 mps 646 mmHg 83%
    22:00 0°C° 0 mm 1 mps 646 mmHg 82%
    23:00 0°C° 0 mm 1 mps 647 mmHg 80%

    Day after tomorrow, 10 December, Tuesday

    Time Temperature Precipitation Wind Pressure Humidity
    00:00 0°C° 0 mm 1 mps 647 mmHg 80%
    01:00 0°C° 0 mm 1 mps 647 mmHg 79%
    02:00 -1°C° 0 mm 1 mps 647 mmHg 78%
    03:00 -1°C° 0 mm 1 mps 647 mmHg 79%
    04:00 -1°C° 0 mm 1 mps 647 mmHg 79%
    05:00 -3°C° 0 mm 2 mps 647 mmHg 79%
    06:00 -3°C° 0 mm 2 mps 647 mmHg 79%
    07:00 -3°C° 0 mm 2 mps 648 mmHg 80%
    08:00 -3°C° 0 mm 2 mps 648 mmHg 80%
    09:00 -1°C° 0 mm 2 mps 648 mmHg 77%
    10:00 +1°C° 0 mm 2 mps 649 mmHg 75%
    11:00 +2°C° 0 mm 2 mps 649 mmHg 72%
    12:00 +3°C° 0 mm 2 mps 648 mmHg 71%
    13:00 +4°C° 0 mm 1 mps 648 mmHg 69%
    14:00 +5°C° 0 mm 1 mps 648 mmHg 68%
    15:00 +4°C° 0 mm 1 mps 647 mmHg 70%
    16:00 +3°C° 0 mm 1 mps 647 mmHg 71%
    17:00 +2°C° 0 mm 1 mps 647 mmHg 73%
    18:00 +2°C° 0 mm 1 mps 647 mmHg 70%
    19:00 +1°C° 0 mm 1 mps 647 mmHg 66%
    20:00 +1°C° 0 mm 1 mps 647 mmHg 63%
    21:00 +1°C° 0 mm 1 mps 647 mmHg 61%
    22:00 -1°C° 0 mm 2 mps 647 mmHg 60%
    23:00 -1°C° 0 mm 2 mps 647 mmHg 58%

    11 December, Wednesday

    Time Temperature Precipitation Wind Pressure Humidity
    00:00 -1°C° 0 mm 2 mps 647 mmHg 58%
    01:00 -1°C° 0 mm 2 mps 646 mmHg 58%
    02:00 -1°C° 0 mm 2 mps 646 mmHg 57%
    03:00 -1°C° 0 mm 2 mps 646 mmHg 56%
    04:00 +1°C° 0 mm 2 mps 646 mmHg 55%
    05:00 +1°C° 0 mm 2 mps 646 mmHg 54%
    06:00 +2°C° 0 mm 1 mps 645 mmHg 54%
    07:00 +2°C° 0 mm 1 mps 645 mmHg 53%
    08:00 +1°C° 0 mm 1 mps 645 mmHg 53%
    09:00 +3°C° 0 mm 1 mps 646 mmHg 54%
    10:00 +4°C° 0 mm 1 mps 646 mmHg 55%
    11:00 +4°C° 0 mm 0 mps 647 mmHg 57%
    12:00 +5°C° 0 mm 1 mps 646 mmHg 58%
    13:00 +5°C° 0 mm 1 mps 646 mmHg 60%
    14:00 +5°C° 0 mm 2 mps 646 mmHg 62%
    15:00 +5°C° 0 mm 1 mps 646 mmHg 66%
    16:00 +4°C° 0 mm 1 mps 646 mmHg 70%
    17:00 +3°C° 0 mm 1 mps 646 mmHg 74%
    18:00 +2°C° 0 mm 1 mps 646 mmHg 78%
    19:00 +2°C° 0 mm 1 mps 647 mmHg 83%
    20:00 +2°C° 0 mm 1 mps 647 mmHg 88%
    21:00 +1°C° 0 mm 1 mps 647 mmHg 88%
    22:00 +1°C° 0 mm 1 mps 648 mmHg 88%
    23:00 -1°C° 0 mm 0 mps 648 mmHg 88%

    12 December, Thursday

    Time Temperature Precipitation Wind Pressure Humidity
    00:00 -1°C° 0 mm 0 mps 648 mmHg 87%
    01:00 0°C° 0 mm 1 mps 648 mmHg 86%
    02:00 0°C° 0 mm 1 mps 648 mmHg 85%
    03:00 0°C° 0 mm 1 mps 648 mmHg 85%
    04:00 0°C° 0 mm 1 mps 648 mmHg 85%
    05:00 0°C° 0 mm 1 mps 648 mmHg 85%
    06:00 0°C° 0 mm 1 mps 648 mmHg 84%
    07:00 0°C° 0 mm 1 mps 648 mmHg 83%
    08:00 0°C° 0 mm 1 mps 649 mmHg 82%
    09:00 +1°C° 0 mm 1 mps 649 mmHg 80%
    10:00 +1°C° 0 mm 2 mps 649 mmHg 78%
    11:00 +3°C° 0 mm 2 mps 650 mmHg 76%
    12:00 +3°C° 0 mm 2 mps 649 mmHg 75%
    13:00 +4°C° 0 mm 2 mps 649 mmHg 74%
    14:00 +4°C° 0 mm 2 mps 648 mmHg 73%
    15:00 +3°C° 0 mm 2 mps 648 mmHg 74%
    16:00 +4°C° 0 mm 1 mps 648 mmHg 74%
    17:00 +3°C° 0 mm 1 mps 648 mmHg 75%
    18:00 +3°C° 0 mm 1 mps 648 mmHg 74%
    19:00 +3°C° 0 mm 1 mps 648 mmHg 73%
    20:00 +3°C° 0 mm 1 mps 648 mmHg 72%
    21:00 +3°C° 0 mm 1 mps 648 mmHg 75%
    22:00 +2°C° 0 mm 2 mps 648 mmHg 78%
    23:00 +2°C° 0 mm 2 mps 648 mmHg 80%

    13 December, Friday

    Time Temperature Precipitation Wind Pressure Humidity
    00:00 +2°C° 0.3 mm 2 mps 648 mmHg 85%
    01:00 +2°C° 0.3 mm 2 mps 648 mmHg 89%
    02:00 +2°C° 0.3 mm 2 mps 647 mmHg 93%
    03:00 +2°C° 0.2 mm 2 mps 647 mmHg 94%
    04:00 +2°C° 0.2 mm 3 mps 647 mmHg 94%
    05:00 +2°C° 0.2 mm 3 mps 647 mmHg 95%
    06:00 +2°C° 0.2 mm 3 mps 646 mmHg 94%
    07:00 +2°C° 0.2 mm 3 mps 646 mmHg 93%
    08:00 +3°C° 0.2 mm 2 mps 646 mmHg 92%
    09:00 +2°C° 0.4 mm 3 mps 646 mmHg 92%
    10:00 +3°C° 0.4 mm 3 mps 646 mmHg 91%
    11:00 +3°C° 0.4 mm 3 mps 645 mmHg 91%
    12:00 +3°C° 1 mm 3 mps 645 mmHg 93%
    13:00 +4°C° 1 mm 2 mps 645 mmHg 95%
    14:00 +5°C° 1 mm 1 mps 645 mmHg 97%
    15:00 +5°C° 0.8 mm 1 mps 645 mmHg 97%
    16:00 +4°C° 0.8 mm 1 mps 645 mmHg 97%
    17:00 +4°C° 0.8 mm 1 mps 646 mmHg 98%
    18:00 +4°C° 0.2 mm 1 mps 646 mmHg 97%
    19:00 +4°C° 0.2 mm 1 mps 647 mmHg 96%
    20:00 +3°C° 0.2 mm 1 mps 647 mmHg 95%
    21:00 +3°C° 0 mm 1 mps 647 mmHg 90%
    22:00 +2°C° 0 mm 1 mps 647 mmHg 85%
    23:00 +2°C° 0 mm 1 mps 647 mmHg 80%
    Show more